Wind_Speed
17 24 29 34 42 47 47 47 49 50 50 49 47 47 47 47 47 46 46 45 45 45 44 43 43 42 42 42 42 41 41 40 40 40 40 41 42 43 45 46 48 50 51 53 54 56 57 58 59 60 61 63 64 66 66 65 63 61 59 56 55 53 52 51 51 52 52 53 54 55 56 57 59 60 62 63 65 66 68 69 69 69 72 74 75 76 77 78
17 23 29 32 39 45 46 47 48 50 49 48 47 47 47 47 47 46 45 45 44 43 43 43 42 41 41 41 40 40 39 39 40 40 41 42 43 45 46 48 49 51 52 54 55 56 57 58 59 60 62 64 64 63 61 58 55 53 52 51 50 49 48 48 48 48 48 49 49 50 51 53 54 55 57 59 60 63 65 65 65 67 70 72 74 76 78 79
20 23 29 32 36 42 45 47 49 50 49 48 47 47 47 46 46 45 44 43 42 42 42 42 41 41 41 40 39 39 39 40 40 41 41 43 45 47 48 49 51 52 53 54 55 56 57 58 60 61 61 60 58 56 53 51 50 48 47 46 45 45 44 44 44 44 44 45 46 48 49 51 52 54 55 56 57 60 62 63 64 66 68 70 72 74 76 78
23 25 29 33 37 41 45 47 49 50 49 47 47 47 46 45 45 44 43 42 41 41 41 41 40 40 39 39 39 39 40 40 40 41 43 45 46 48 49 50 51 53 54 54 55 56 57 59 59 58 56 54 51 49 47 46 45 44 43 42 41 41 40 41 42 42 43 44 46 48 49 51 52 53 55 55 56 58 60 62 64 65 66 68 70 71 73 75
25 26 29 34 38 42 45 47 48 49 48 46 46 46 45 44 44 43 43 42 42 41 40 40 40 39 39 39 40 40 40 40 41 42 44 45 47 48 49 50 51 52 53 54 55 57 57 56 54 52 49 47 46 44 43 42 41 40 39 38 38 39 39 40 41 42 43 45 46 48 50 51 51 53 56 56 57 58 60 63 64 66 67 67 69 70 72 73
27 28 29 33 38 41 44 46 47 47 46 45 44 44 44 43 43 43 43 43 42 41 40 39 38 38 38 38 38 39 39 40 41 43 44 46 47 48 49 50 51 52 53 54 55 54 52 50 48 46 44 42 41 40 39 38 38 38 38 38 38 39 40 41 41 42 43 44 46 49 51 51 50 53 57 58 59 60 62 64 66 68 69 70 70 71 72 73
28 30 31 33 37 41 43 45 44 43 43 43 43 42 42 42 42 42 42 42 40 39 37 36 36 35 36 36 37 37 39 40 42 43 44 46 47 48 49 49 50 52 53 53 51 49 46 44 42 41 40 38 37 37 36 36 37 37 38 38 39 40 40 40 41 41 42 43 46 51 54 54 51 54 59 61 63 65 65 67 69 70 71 72 73 74 74 75
28 31 32 34 37 40 41 42 42 41 39 39 40 41 40 40 40 39 39 38 36 34 33 33 33 33 34 35 36 37 39 40 42 43 44 45 46 47 48 49 51 51 50 47 45 42 40 39 38 37 36 35 35 35 35 36 37 38 38 38 39 40 40 40 41 41 42 43 47 55 59 58 56 57 62 66 68 70 71 72 73 74 75 75 76 76 76 77
27 31 33 36 37 38 40 41 41 40 38 37 37 38 38 38 37 36 35 33 32 31 32 32 32 33 34 35 36 37 39 40 42 43 44 44 45 46 47 49 48 46 43 41 39 37 35 35 34 33 34 34 34 34 35 36 37 38 39 39 39 39 40 40 40 41 43 44 49 58 64 63 62 63 67 71 74 76 77 78 79 80 80 80 80 80 79 79
26 30 34 35 34 35 38 39 40 39 38 36 35 35 36 36 35 33 32 31 31 32 32 32 32 32 33 34 36 37 39 40 41 41 42 43 44 46 46 45 42 39 37 35 33 32 32 32 32 32 32 33 33 34 35 36 37 39 40 40 39 39 40 40 41 43 46 48 52 62 69 69 68 69 72 75 77 79 81 82 84 84 85 85 85 84 83 82
26 28 31 32 32 33 35 36 37 37 36 35 34 34 34 33 32 31 31 31 30 30 30 30 31 32 33 35 36 37 38 38 39 39 40 42 43 43 41 38 35 33 31 30 30 30 30 30 30 31 31 32 33 34 35 36 37 39 41 43 42 40 40 40 43 48 52 54 58 65 71 72 73 75 77 79 81 82 84 86 87 87 88 88 88 87 86 85
27 26 28 28 29 31 32 32 33 34 34 33 33 32 32 32 31 30 30 29 29 28 29 30 30 31 32 33 34 35 36 36 37 39 40 40 39 36 33 31 29 28 28 28 28 28 28 28 29 30 30 31 32 33 35 37 38 40 42 45 47 46 44 44 50 57 61 62 64 68 72 74 76 78 80 82 84 86 87 88 89 90 90 90 89 88 87 86
27 27 27 26 26 28 28 27 29 30 30 31 31 31 31 31 30 29 29 29 29 29 29 28 28 29 30 31 32 33 34 35 37 37 36 34 32 29 27 26 25 25 25 25 26 26 27 27 28 28 30 31 33 34 36 38 40 43 45 46 49 53 52 51 58 65 68 69 71 73 74 75 77 80 81 83 86 88 89 90 91 91 90 90 89 88 87 86
27 26 26 26 25 25 24 23 25 26 27 29 30 30 30 30 29 29 29 28 27 26 25 25 26 27 29 30 31 32 33 34 34 32 30 27 25 24 23 22 22 23 23 24 24 25 25 26 27 28 30 33 35 37 39 40 42 45 48 49 49 54 56 57 62 69 72 74 76 77 77 77 79 81 83 85 88 90 92 93 93 92 91 89 88 86 85 84
28 26 25 26 25 24 23 22 22 22 23 24 25 26 26 26 26 26 25 24 22 21 22 24 26 27 28 28 30 31 31 30 28 26 24 22 20 20 20 20 21 22 22 22 22 23 24 26 28 30 32 35 37 39 41 43 44 46 49 51 51 54 58 61 66 72 75 78 80 80 79 80 82 84 86 88 91 92 94 95 95 94 92 90 88 85 84 82
28 25 24 24 24 24 24 23 22 21 20 19 19 19 20 21 21 20 19 18 18 20 22 24 25 25 26 28 28 28 26 24 22 21 19 18 17 17 18 19 19 20 20 20 22 24 26 28 30 32 34 36 38 40 43 45 47 48 49 52 54 54 57 62 68 75 79 82 84 84 82 83 85 86 88 90 92 94 96 97 98 97 95 92 89 86 84 82
29 27 24 22 22 22 22 21 20 19 18 17 15 15 16 17 16 15 14 15 18 20 22 22 24 25 25 25 24 22 21 19 18 16 15 15 15 16 17 17 17 17 19 21 23 25 28 31 33 34 35 37 39 41 44 45 45 46 48 53 57 57 57 61 67 74 81 84 87 87 86 86 87 88 91 93 95 97 99 100 101 100 97 94 91 87 85 82
30 28 25 22 20 20 19 18 17 17 16 14 13 13 13 14 13 12 13 15 17 19 20 22 23 22 21 20 19 18 16 15 14 13 13 13 14 15 15 16 16 18 19 22 24 27 30 32 34 36 38 39 41 43 43 44 44 45 48 52 57 61 61 63 69 73 79 84 87 88 86 86 88 90 93 96 98 100 101 103 104 103 100 96 92 88 84 81
30 30 27 25 22 20 18 17 15 14 13 12 11 11 11 11 11 11 13 15 17 19 20 21 19 18 17 16 15 13 12 11 11 11 11 12 13 13 14 15 17 18 20 22 25 28 32 34 37 39 41 42 42 43 44 45 46 49 51 54 59 64 66 67 72 75 79 84 87 88 86 86 89 92 95 98 100 102 103 105 106 105 102 98 94 90 85 81
30 31 30 27 26 23 21 19 17 16 15 13 11 10 9 9 10 12 14 15 18 19 18 16 15 14 13 12 11 10 10 9 9 10 11 11 11 12 13 15 17 19 21 24 27 30 33 36 38 40 42 42 43 44 45 46 48 52 55 58 62 68 71 72 74 77 80 83 86 88 88 88 91 95 98 100 101 103 105 106 107 107 104 100 95 91 86 82
29 31 31 30 28 26 24 22 20 19 18 15 12 10 9 10 12 14 16 18 18 16 13 12 12 11 9 8 7 7 8 7 8 9 10 10 10 12 14 16 18 21 23 26 29 31 34 37 39 41 42 43 45 46 46 47 51 55 58 62 66 69 73 76 78 79 81 83 85 89 90 90 94 97 100 102 103 105 106 107 108 107 105 101 97 92 87 83
26 29 31 30 29 27 25 23 22 21 19 15 13 12 12 14 15 17 18 17 14 11 10 10 8 7 6 5 5 6 6 7 7 7 8 9 11 13 16 18 20 22 25 27 30 32 35 37 39 41 43 44 45 47 48 50 53 58 62 66 69 70 70 74 78 81 83 84 85 88 92 92 94 99 101 104 105 106 107 107 109 109 106 102 97 91 86 82
23 26 28 29 28 27 25 24 23 22 19 17 16 15 15 16 17 18 16 12 10 9 8 6 4 4 3 3 3 4 5 5 5 6 7 10 12 15 17 19 21 24 26 28 31 33 35 37 39 41 43 45 46 48 51 54 57 62 66 69 72 73 72 71 75 80 84 85 85 87 92 93 95 99 102 105 105 106 107 107 108 109 106 102 97 91 85 81
21 23 24 26 26 26 25 24 23 22 20 19 18 17 18 17 16 13 10 9 8 7 5 2 1 2 2 1 2 3 4 3 4 5 7 10 13 16 18 20 22 24 27 28 31 33 34 36 38 41 43 44 46 49 53 57 62 65 69 71 73 76 77 76 77 80 83 86 86 86 90 93 95 99 102 104 105 106 107 108 108 108 107 103 98 91 84 80
19 20 21 22 23 24 24 24 23 21 20 19 18 17 16 13 10 9 8 8 7 4 2 1 1 1 0 1 3 3 3 3 4 6 9 11 13 16 19 22 23 24 26 28 30 32 34 36 38 41 43 44 46 49 54 58 61 65 69 72 76 78 80 81 81 81 83 86 88 88 91 93 95 99 102 104 107 108 108 109 110 110 109 106 99 92 84 78
17 18 18 19 21 22 22 21 20 19 17 16 14 12 10 9 8 8 8 7 5 3 3 3 2 1 2 3 3 2 2 4 6 8 10 12 13 16 19 22 24 25 26 28 30 32 34 37 39 41 44 46 48 51 54 57 59 64 68 73 78 80 82 83 84 84 85 88 90 90 92 94 95 98 102 106 108 110 111 112 114 114 112 109 102 94 86 79
16 17 17 17 17 17 17 16 15 13 11 10 9 9 9 9 9 9 9 7 5 4 4 4 3 3 4 3 2 0 3 5 7 9 10 12 14 17 20 22 24 25 26 29 31 33 35 38 40 43 46 48 50 52 53 56 59 64 69 74 77 81 83 86 88 87 86 88 91 91 92 96 99 102 105 109 111 113 115 117 118 117 115 112 107 100 93 87
17 17 17 16 15 14 13 13 12 11 11 11 10 10 10 10 10 10 9 8 6 5 5 5 4 5 4 2 1 2 4 5 7 9 11 13 16 18 19 20 23 25 28 30 32 34 36 40 43 45 47 48 50 51 53 57 60 64 69 73 77 81 85 87 89 88 86 88 92 93 93 95 101 107 110 112 115 117 119 119 120 120 119 117 114 109 103 97
18 18 18 17 16 16 15 14 13 13 12 11 11 11 11 11 11 11 10 9 7 7 6 6 6 5 3 2 2 3 5 7 9 11 14 16 17 19 20 21 23 25 28 30 32 35 38 41 43 45 47 49 50 52 55 58 61 65 68 72 76 81 84 85 88 89 87 88 92 95 97 98 101 108 113 115 118 120 121 121 121 123 122 121 120 117 111 105
20 19 19 18 18 17 16 15 13 12 12 12 13 13 13 13 12 11 10 9 8 8 8 7 6 4 3 3 3 4 6 8 10 13 15 17 18 19 21 23 25 28 30 32 35 37 39 40 42 45 48 50 51 54 57 60 63 65 68 70 74 77 80 83 87 90 90 90 94 99 102 105 106 109 114 117 120 121 122 122 123 124 125 125 124 122 117 110
20 20 19 19 17 16 15 14 13 13 13 14 15 15 15 14 13 12 10 9 9 9 8 6 5 4 3 3 4 5 7 8 10 12 14 16 20 23 25 29 33 35 35 35 35 36 37 39 42 45 47 50 52 55 59 62 65 67 69 70 72 74 77 81 86 92 94 93 97 102 105 108 110 112 116 119 121 122 123 125 125 126 128 129 128 125 120 112
21 20 19 18 17 16 15 14 14 15 17 17 17 16 15 14 13 12 11 10 10 9 7 6 5 4 3 4 5 6 7 9 10 13 15 19 23 26 28 29 31 32 33 32 33 36 38 40 42 44 46 49 52 55 59 63 66 68 70 71 72 74 77 82 87 94 98 97 100 104 105 108 111 113 117 120 122 124 125 127 128 129 131 132 131 127 122 115
20 20 19 17 16 15 15 16 18 19 19 18 17 16 15 14 13 13 12 11 10 8 6 5 5 4 4 5 6 7 8 9 12 15 18 21 23 24 25 26 28 29 31 32 34 37 40 41 41 43 46 49 53 56 60 64 68 71 73 76 78 81 84 87 90 96 101 101 101 104 106 108 111 114 118 121 124 125 126 128 130 132 134 133 132 128 124 119
19 18 17 16 16 16 18 19 20 20 20 18 17 16 15 14 14 13 12 11 9 7 6 5 4 4 4 6 7 7 8 10 13 15 18 20 22 24 26 28 30 32 34 35 36 36 39 41 43 45 49 53 58 61 63 67 71 74 78 82 85 86 88 92 95 98 103 104 103 105 108 110 112 115 118 121 124 126 127 129 131 133 133 132 131 129 126 122
18 17 16 16 17 19 20 21 21 21 19 18 17 16 15 15 14 13 12 10 9 7 6 4 4 4 4 6 7 7 8 10 13 15 18 20 22 25 27 29 31 33 35 38 38 38 40 44 47 50 54 58 62 65 67 70 73 77 80 83 85 87 88 91 95 98 102 105 106 107 110 112 112 114 118 121 125 127 128 130 131 132 132 132 132 131 128 124
17 17 17 18 20 22 22 22 21 20 18 17 17 16 16 15 14 13 11 10 8 7 5 4 3 4 5 6 7 8 9 10 12 15 17 20 22 25 27 29 31 34 36 39 41 42 44 47 51 55 58 61 63 67 70 72 76 79 81 82 84 88 90 90 92 94 98 103 107 109 111 113 114 115 119 122 125 128 129 131 131 131 131 132 133 133 131 126
17 18 19 21 23 23 23 22 21 19 18 18 17 17 17 15 14 12 11 9 8 6 4 3 3 3 5 6 7 8 9 10 12 14 17 19 22 25 27 30 32 35 38 41 44 46 48 51 55 58 61 63 65 68 71 74 77 80 82 83 85 88 92 93 93 94 96 100 106 111 113 115 116 118 120 123 126 129 131 132 131 131 132 133 133 133 132 130
19 20 22 23 24 23 22 21 20 19 18 18 18 17 16 15 13 11 10 9 7 5 3 3 2 3 4 5 7 8 9 10 11 14 16 19 22 24 28 31 34 37 40 43 46 49 52 55 57 60 63 65 67 70 73 75 78 80 82 85 87 89 93 97 98 99 100 102 104 109 113 116 118 120 121 123 127 131 132 132 132 132 133 133 133 133 133 131
21 22 24 24 24 23 21 20 19 19 18 18 18 18 16 14 12 11 10 8 6 4 3 1 1 3 4 5 7 8 9 10 11 14 16 18 22 25 28 32 35 39 41 43 47 50 53 56 59 61 64 67 69 71 74 76 77 79 81 84 87 90 93 97 100 101 103 104 105 108 113 117 119 121 122 124 128 132 133 134 134 134 134 134 134 133 133 132
22 24 24 24 23 21 19 19 19 19 18 18 18 17 15 13 12 10 9 7 5 3 2 0 2 3 4 6 8 8 9 10 12 14 17 19 23 26 29 33 36 39 42 44 47 50 54 57 60 62 65 67 70 72 74 76 77 78 81 84 86 89 92 95 98 101 103 106 108 109 112 116 119 121 123 126 129 132 134 136 137 135 133 133 134 134 133 133
23 24 24 23 21 20 19 19 18 18 18 18 17 15 14 12 11 10 8 7 5 3 2 1 2 3 5 6 8 8 9 10 12 15 17 20 23 27 30 33 36 39 42 45 47 50 53 56 59 62 64 67 70 73 74 76 78 79 82 85 87 90 92 94 97 100 103 105 108 110 112 114 118 122 125 127 129 131 134 136 137 135 133 133 134 135 135 135
24 24 23 22 20 19 19 19 19 18 18 17 16 14 12 11 10 9 8 6 5 3 2 2 3 3 4 6 7 8 9 11 13 16 18 21 24 28 31 34 37 40 42 45 47 49 52 55 59 62 65 68 70 73 74 76 78 81 83 86 88 91 93 95 97 100 102 103 105 108 112 114 118 122 126 128 129 130 132 134 136 135 134 133 134 135 136 136
24 23 22 20 19 18 18 18 18 18 17 16 15 13 11 10 9 8 8 7 6 5 4 3 3 3 4 5 7 9 10 12 14 17 19 22 25 28 31 34 37 40 43 45 48 49 51 53 56 60 64 67 69 71 74 77 79 81 83 86 89 91 93 95 97 99 102 103 104 107 111 115 118 121 124 127 127 129 131 133 135 136 135 134 135 136 137 137
23 22 21 20 18 18 18 18 17 18 17 15 14 12 11 9 8 7 8 8 7 6 5 5 5 4 4 6 8 10 12 14 16 18 20 23 26 29 32 35 38 41 44 47 49 51 53 54 56 59 61 64 66 69 73 77 81 83 85 86 89 91 93 95 96 98 101 104 105 107 110 114 117 119 122 125 126 127 130 133 135 136 136 135 136 137 138 138
22 21 20 19 18 18 18 18 17 17 16 15 13 12 10 9 8 8 8 8 9 8 7 6 6 6 6 7 9 12 14 16 18 19 21 24 26 29 32 35 38 41 44 47 50 53 56 57 59 62 64 66 70 73 76 79 83 85 87 88 89 91 93 95 97 98 100 103 106 107 108 110 113 116 119 122 124 126 128 131 134 135 136 137 137 138 138 138
21 20 19 18 18 18 18 18 17 17 16 14 13 12 11 9 8 8 8 9 10 9 8 8 8 8 8 9 11 13 15 17 19 20 22 24 27 30 32 35 38 41 44 47 51 54 57 60 62 64 67 71 74 77 79 81 84 86 88 89 90 91 93 95 97 99 100 102 105 108 109 110 113 115 118 120 123 125 127 129 132 134 136 138 139 139 138 138
20 19 18 18 18 18 18 18 18 17 15 14 14 12 11 10 9 9 9 10 11 11 10 10 10 10 10 11 13 15 16 18 20 21 23 25 28 30 33 35 38 41 44 47 50 54 57 61 64 66 68 71 74 77 80 82 84 86 87 89 90 91 93 95 97 98 100 101 104 107 110 111 113 115 118 121 123 124 126 129 132 134 135 137 138 138 138 137
20 18 17 17 17 17 18 18 18 17 16 15 14 13 12 12 11 11 11 11 12 12 12 12 12 11 12 13 14 16 18 19 21 22 24 26 28 30 33 35 38 40 43 46 49 53 57 60 64 67 69 71 74 76 79 82 83 85 87 89 90 91 92 94 96 97 99 101 103 105 108 110 113 116 119 121 122 124 126 128 131 133 134 135 137 138 138 137
19 18 17 17 17 17 18 18 18 17 16 16 15 14 14 14 13 13 13 13 13 13 13 13 13 13 13 14 16 18 19 20 22 23 25 27 28 30 32 35 37 40 42 45 48 52 55 59 63 66 69 71 73 76 78 80 82 84 86 88 89 91 92 93 95 96 98 100 102 104 106 109 113 116 118 119 121 123 125 128 129 131 132 133 135 136 137 137
19 18 17 17 17 17 18 18 18 18 17 17 16 16 16 15 16 16 15 15 15 15 15 15 15 15 15 16 18 19 21 22 23 24 26 27 29 30 32 34 37 39 42 45 48 51 54 58 61 64 67 70 72 74 77 79 81 83 84 86 89 91 91 92 94 96 97 99 101 103 105 107 111 114 115 118 120 122 125 127 127 128 130 132 134 135 136 137
19 18 17 17 17 17 18 19 19 19 19 18 18 18 17 17 18 18 17 17 17 17 17 17 17 16 16 18 19 21 22 23 24 25 26 28 29 30 32 34 37 39 42 45 47 50 53 56 59 63 66 69 71 73 75 78 80 81 83 85 88 90 91 93 95 96 98 99 101 103 105 106 109 112 115 118 121 123 125 126 126 128 130 132 133 133 134 136
19 18 17 17 17 18 18 19 19 20 20 20 20 20 20 20 20 19 19 19 18 18 18 18 18 18 18 19 20 22 23 24 25 26 27 28 30 31 33 35 37 39 42 45 47 50 53 56 58 61 65 68 70 72 75 77 79 80 82 84 86 89 91 92 94 96 98 100 102 103 105 107 109 112 116 119 122 124 126 126 127 128 129 130 131 133 134 135
Wind_Direction
224 208 199 199 200 200 203 208 211 214 216 218 220 222 225 227 230 233 236 239 241 245 247 251 253 256 259 262 265 269 272 274 276 278 280 283 285 288 290 292 294 296 298 298 298 298 298 299 299 300 301 301 301 301 301 300 301 301 300 300 300 299 299 299 299 300 301 302 303 303 303 303 302 302 302 301 300 299 299 300 299 295 292 291 290 289 288 287
213 204 198 195 200 200 201 206 211 215 217 217 218 220 223 227 230 233 237 240 243 246 249 252 255 258 260 263 267 270 273 275 277 279 281 284 287 289 291 294 296 298 299 299 299 300 300 301 301 302 302 302 301 301 301 301 301 301 300 300 300 301 302 303 305 306 306 306 305 304 303 302 301 301 300 300 299 299 299 298 296 293 292 291 289 288 287 286
206 201 199 193 198 201 202 207 211 215 217 218 218 220 223 227 231 235 238 241 244 247 250 253 256 259 262 265 268 271 273 276 278 280 283 286 288 290 293 296 297 298 299 300 301 302 302 302 302 302 302 302 302 302 301 301 300 300 301 302 304 305 307 308 308 307 306 305 303 302 301 300 299 300 299 300 301 301 300 299 297 296 295 293 291 289 288 286
206 199 199 194 195 200 203 208 212 216 219 219 219 221 224 227 231 235 238 242 244 247 250 253 257 260 264 267 269 271 274 276 279 281 284 287 290 292 295 297 298 300 301 302 302 303 303 303 302 302 302 302 301 301 301 301 302 303 305 307 308 308 308 307 306 306 305 304 303 301 301 300 301 302 302 303 304 304 304 303 302 300 298 296 294 292 290 288
207 201 199 197 197 200 203 209 214 217 220 221 222 223 224 227 230 234 238 242 245 247 251 254 258 262 264 267 269 272 274 278 281 283 286 289 292 295 297 298 300 301 302 303 303 303 303 303 303 303 303 302 302 303 304 306 307 308 308 308 306 305 305 304 304 305 304 304 304 304 302 302 304 306 307 308 307 307 308 307 306 304 302 301 298 296 293 290
206 205 201 200 200 203 205 209 215 219 221 223 224 225 226 228 230 234 238 241 245 248 252 256 259 262 265 268 271 274 277 280 282 286 289 292 294 296 298 300 301 302 303 303 304 304 303 303 303 303 303 304 306 308 309 310 309 308 307 305 304 304 304 304 305 306 307 307 308 309 307 306 308 312 314 314 314 313 312 311 311 309 308 306 303 300 297 294
203 206 204 203 203 206 209 211 216 220 222 224 226 227 229 230 232 234 238 242 246 250 254 257 261 265 268 270 273 276 279 282 285 288 291 294 296 298 300 301 302 303 304 304 304 304 304 304 305 306 307 310 311 311 310 309 306 305 305 304 304 305 306 307 309 310 311 313 315 317 314 312 314 318 321 321 320 319 318 318 316 315 313 310 308 305 302 299
201 204 205 206 207 208 211 214 219 222 224 225 226 228 231 234 236 237 241 245 249 254 258 262 266 269 271 273 276 278 281 284 288 290 293 295 298 299 301 302 303 304 304 304 304 305 306 308 310 312 313 313 312 310 309 307 306 306 305 306 306 308 309 312 314 316 318 319 323 325 323 321 324 327 329 328 327 326 325 323 322 319 317 315 312 310 307 304
201 202 206 210 211 210 211 215 220 224 228 229 229 231 234 237 240 243 246 251 256 260 263 265 268 270 272 275 278 281 284 287 290 292 295 297 299 301 302 303 304 304 305 306 307 309 311 314 315 315 314 312 310 309 308 308 308 308 308 309 310 312 313 316 319 321 324 326 330 333 331 331 334 335 335 334 333 332 330 328 326 324 321 318 316 313 310 307
206 202 207 212 213 211 212 215 219 224 228 231 233 235 237 241 245 249 252 256 260 263 264 266 268 271 274 277 281 283 286 289 292 295 297 300 301 302 303 304 305 306 307 310 312 315 317 317 316 314 312 310 310 310 311 312 313 315 316 316 316 318 320 323 327 329 332 334 338 339 338 338 340 340 340 338 336 335 333 331 329 327 324 322 319 316 313 310
210 204 208 212 212 212 214 216 219 223 227 231 234 237 240 243 247 251 255 259 261 264 266 269 271 274 277 280 283 286 289 292 295 298 300 302 303 304 305 306 307 309 313 316 318 318 317 315 314 313 313 313 314 315 317 320 322 326 328 329 328 329 332 335 337 339 341 342 344 344 343 343 344 343 342 341 339 338 336 334 332 329 327 324 321 318 315 312
211 207 209 212 211 213 217 218 220 223 226 230 234 237 241 245 249 253 255 258 262 267 271 273 276 278 280 282 285 289 293 296 298 300 302 303 304 306 307 308 312 316 319 320 318 316 315 314 314 315 315 316 319 322 325 330 333 337 341 344 344 344 347 348 348 350 349 348 348 348 347 347 346 345 344 343 341 340 338 336 334 332 329 325 322 319 316 313
209 207 210 213 212 215 218 218 221 225 229 232 235 239 243 247 250 253 255 259 264 269 273 275 278 280 283 286 290 293 296 298 300 301 303 305 307 308 310 314 319 321 320 317 315 314 314 316 318 319 321 324 327 331 336 340 344 347 349 352 354 355 357 358 357 356 355 352 351 351 350 349 347 347 346 344 343 342 341 339 336 333 330 327 323 320 317 314
209 207 209 213 215 218 221 220 220 224 228 231 235 239 243 247 250 254 258 262 266 271 275 280 283 284 287 290 293 296 298 299 301 303 306 307 309 312 316 320 321 319 316 314 313 315 318 321 325 328 333 337 341 344 347 349 352 354 356 357 359 1 2 2 2 1 359 356 354 353 353 351 349 348 347 346 345 344 343 340 338 335 332 328 324 321 318 314
209 207 206 211 215 219 223 226 226 226 227 229 233 238 243 248 252 256 259 264 271 278 282 284 285 287 290 293 295 297 299 301 304 306 308 310 314 318 321 321 318 315 314 315 317 322 327 331 336 341 345 349 351 353 353 354 355 357 1 3 4 5 5 6 6 4 2 359 356 355 354 352 351 350 349 348 347 345 344 342 340 337 334 330 327 323 320 316
208 208 206 207 212 217 223 227 231 233 236 238 241 246 251 255 256 259 264 273 279 281 281 281 285 289 293 294 296 299 302 304 306 308 312 318 322 322 319 315 313 314 318 323 329 334 340 344 349 353 355 357 358 358 358 358 360 2 6 8 6 6 7 7 8 5 2 0 357 356 355 353 352 351 349 349 348 347 346 344 342 339 336 333 330 326 323 319
206 210 210 208 209 213 218 223 229 234 238 242 246 254 259 260 261 265 271 275 275 274 277 282 288 292 294 296 299 302 304 305 308 314 322 326 323 316 313 312 314 319 326 334 342 348 353 356 359 360 360 360 360 0 1 1 4 7 10 10 6 5 6 7 8 6 2 0 358 357 356 354 352 351 350 350 349 348 347 346 344 341 339 336 332 329 326 322
203 209 212 214 215 215 215 219 223 226 231 235 244 256 258 257 256 259 262 264 267 273 282 288 292 295 298 300 302 303 304 310 319 327 327 321 313 310 313 318 324 330 338 347 354 358 1 3 3 2 1 1 2 2 2 1 4 8 10 10 7 4 5 6 7 7 3 360 358 357 356 354 353 351 351 350 350 350 348 347 346 344 341 338 335 331 328 325
201 206 211 214 219 222 224 226 227 229 234 242 256 263 257 252 250 256 260 265 274 284 291 293 295 299 300 301 302 305 312 323 330 328 318 308 305 309 319 329 338 346 353 357 1 4 7 8 8 7 6 6 5 4 3 4 7 10 10 10 9 6 4 5 7 7 5 1 358 357 355 354 354 352 352 352 351 351 350 349 348 346 343 340 337 334 330 327
199 204 209 212 217 222 227 232 235 241 248 255 263 261 256 260 264 267 270 278 288 293 294 295 297 299 299 302 305 314 328 335 329 313 303 301 307 320 334 346 354 358 360 1 5 10 13 14 12 11 10 8 6 5 6 9 12 13 12 11 10 9 5 5 8 8 6 2 359 357 356 356 356 355 354 353 352 352 351 350 349 348 345 343 340 336 333 330
198 203 208 212 216 221 226 232 237 245 250 254 255 255 259 266 269 273 281 290 295 294 292 293 294 296 300 308 319 333 337 324 304 296 299 309 325 341 351 357 1 3 5 8 13 16 17 16 14 13 11 10 9 8 10 14 15 14 13 12 11 11 8 5 7 9 7 4 0 359 359 358 358 357 355 354 353 353 353 352 351 349 348 345 342 339 336 333
195 201 206 211 216 221 226 232 239 245 249 251 251 253 258 263 270 281 289 293 291 286 286 287 290 300 313 329 343 338 316 291 288 303 322 337 350 360 4 6 8 10 12 13 16 18 18 17 16 15 14 14 13 13 14 15 15 14 13 12 11 11 9 6 7 8 7 5 2 1 0 360 360 359 357 356 354 354 354 353 352 351 350 348 345 342 339 335
191 197 203 209 215 220 225 231 236 241 245 248 251 252 258 267 279 286 287 284 278 275 278 279 291 325 347 354 341 309 284 280 308 336 351 358 4 8 10 13 15 16 15 15 18 20 20 18 17 17 17 18 18 17 16 15 14 14 13 13 11 10 9 7 8 9 8 5 3 2 1 1 1 360 358 357 355 355 355 354 354 353 352 350 347 344 341 338
185 191 198 205 211 217 223 228 233 237 241 245 249 255 264 273 279 277 270 265 262 260 260 263 327 15 18 333 282 266 261 280 323 342 352 4 11 13 15 17 18 19 18 17 18 20 19 18 17 18 19 20 20 19 17 15 14 14 13 13 12 10 8 7 7 10 9 5 3 3 2 1 1 360 358 357 356 356 356 356 355 355 354 352 350 347 344 341
178 184 192 199 206 213 219 224 229 234 239 243 250 258 265 265 259 250 247 245 237 226 211 159 109 61 26 224 224 239 261 300 331 346 356 7 14 17 20 21 21 20 17 17 17 18 18 17 17 18 19 20 20 19 18 17 15 14 13 12 12 10 8 7 7 9 10 6 3 2 2 2 1 360 359 358 357 357 357 357 357 356 356 354 352 349 346 343
171 176 184 192 200 208 214 221 227 232 238 242 245 244 238 229 226 228 226 215 199 181 154 142 139 140 191 199 207 233 300 342 349 357 4 9 13 20 24 24 21 17 14 15 16 17 18 17 16 16 18 19 18 18 17 16 15 13 13 13 12 10 9 7 6 9 10 7 4 2 2 2 1 1 0 359 358 357 357 358 358 358 357 356 354 351 348 345
162 166 173 181 190 197 205 211 214 216 215 210 202 198 201 211 215 210 197 180 171 162 149 154 166 166 177 183 179 317 354 357 359 5 9 11 14 20 25 23 19 16 14 14 15 16 16 17 16 16 17 18 17 16 15 15 14 14 13 13 12 11 9 7 6 8 9 7 4 2 2 2 2 2 2 0 359 358 358 359 359 359 358 357 356 353 351 349
154 157 161 165 169 172 174 174 171 168 167 169 176 187 198 202 195 183 175 170 165 158 155 162 168 162 161 150 81 14 0 2 7 11 11 14 16 17 20 19 18 17 15 14 14 15 15 16 16 15 15 16 15 14 13 14 14 14 14 13 12 11 9 7 5 6 9 8 5 3 2 3 3 3 2 1 360 360 359 359 360 360 359 359 358 356 354 352
148 149 148 147 147 146 146 146 148 152 159 170 181 187 187 181 173 167 165 166 161 160 165 164 160 153 135 92 44 15 6 6 9 12 13 15 15 13 12 12 16 19 17 14 13 14 15 15 15 14 13 13 13 12 11 12 13 14 15 14 12 11 9 6 4 5 8 8 5 4 2 3 4 4 3 2 1 1 360 359 360 0 0 1 0 359 357 355
140 138 136 135 137 139 141 144 150 157 167 177 178 175 169 163 161 161 165 166 162 164 169 164 155 136 98 60 32 13 10 15 20 21 19 17 15 13 10 8 12 16 17 15 13 13 13 13 13 13 12 11 11 11 10 11 12 13 14 14 13 11 9 7 4 3 7 8 6 5 4 3 4 4 4 3 2 1 -0 359 360 1 2 2 2 1 359 357
132 131 132 134 137 140 144 149 158 167 172 171 167 162 158 154 154 160 167 169 164 163 163 153 135 102 74 45 23 16 18 26 28 24 19 15 15 15 13 11 10 10 13 13 10 9 10 11 11 12 11 10 10 10 10 10 11 11 12 13 13 12 11 10 6 4 6 9 8 6 5 3 4 5 5 4 3 2 1 360 360 1 3 3 3 2 0 358
130 132 134 138 141 145 150 159 166 168 165 161 158 155 152 152 156 162 168 168 164 160 154 137 111 86 65 37 25 23 27 29 24 18 16 16 16 17 16 15 12 10 9 10 8 7 8 9 9 10 9 9 9 10 9 9 9 9 9 10 11 12 12 12 10 6 6 9 9 6 5 4 4 5 5 5 4 3 2 1 0 1 3 4 3 2 1 359
133 135 139 143 148 153 160 164 163 161 158 156 155 152 151 157 163 166 169 167 163 156 145 122 100 80 52 33 28 29 31 27 21 18 17 18 18 18 17 16 13 9 7 8 9 8 7 7 7 8 8 8 8 9 9 8 7 8 8 8 9 10 11 11 11 9 6 9 10 7 6 5 4 5 5 5 5 4 4 3 2 2 3 3 3 2 1 0
136 140 146 151 157 160 161 160 157 156 156 154 152 151 156 165 170 169 168 165 157 147 134 115 97 74 46 35 33 32 30 24 19 18 17 17 16 15 16 15 11 8 5 5 6 6 6 5 5 6 7 7 6 7 8 7 7 7 7 7 7 8 9 9 10 9 6 7 10 8 6 6 5 4 5 5 5 5 5 4 4 3 3 3 3 3 2 1
143 149 156 160 160 158 156 154 154 154 153 151 152 156 163 169 171 168 164 159 152 142 132 116 96 72 49 39 35 32 25 19 17 16 14 13 14 14 14 13 11 8 6 3 2 3 4 4 4 5 6 6 5 5 6 7 6 6 6 6 5 5 8 9 9 8 6 5 7 9 7 6 5 5 5 6 6 6 6 6 6 4 3 2 3 3 3 2
153 160 163 160 156 153 153 153 152 151 150 152 156 162 167 170 170 167 160 154 149 144 135 118 93 65 46 36 32 27 18 14 13 11 10 10 12 12 11 10 8 7 5 4 3 2 3 4 4 4 4 4 4 4 4 5 6 5 5 5 5 4 5 8 9 9 7 5 5 8 8 6 5 5 5 6 7 7 7 7 6 4 3 2 2 3 3 3
162 164 161 156 152 152 154 153 151 150 152 157 163 166 169 170 168 164 158 155 152 149 137 114 81 53 40 30 23 17 11 8 7 6 7 8 9 10 8 6 5 5 5 5 4 2 2 3 3 3 2 2 2 3 3 4 4 4 3 4 5 4 3 4 7 8 8 6 5 6 7 6 5 5 6 6 7 8 8 7 6 5 3 2 2 3 3 3
165 162 157 154 153 154 154 152 151 153 158 164 168 170 170 168 166 162 159 158 156 153 140 112 76 44 31 23 15 9 4 2 2 2 3 6 7 7 6 4 4 4 4 4 4 2 1 1 1 1 1 0 1 1 2 2 3 2 2 2 3 4 3 2 3 6 6 6 6 6 7 7 6 5 6 6 7 8 8 7 6 6 4 3 2 3 3 3
162 158 155 155 155 155 154 153 154 159 166 170 171 171 169 166 164 163 161 162 162 159 151 122 52 23 17 15 9 3 359 358 359 359 1 3 4 4 3 3 3 2 2 2 2 1 0 359 359 360 360 359 359 360 360 1 1 1 1 1 1 3 3 2 1 3 5 4 5 6 6 6 6 5 5 6 7 7 7 7 7 6 5 4 3 3 3 4
160 157 155 156 156 154 153 155 160 167 172 174 173 171 168 166 165 165 166 169 172 171 174 285 354 4 9 9 3 358 357 357 356 356 358 0 2 2 1 2 2 1 0 1 0 360 359 358 358 358 359 358 358 359 359 359 360 1 1 1 1 2 3 2 1 1 3 3 3 4 6 6 6 5 5 6 6 6 7 8 7 7 6 5 3 3 3 4
159 157 157 157 155 155 157 162 168 174 176 177 176 173 170 168 169 169 173 180 187 194 219 298 340 354 3 4 359 355 355 355 353 353 356 359 0 360 359 360 360 359 358 358 359 359 358 357 357 357 358 358 358 357 358 358 358 360 0 0 1 1 1 2 1 0 2 3 2 2 4 5 5 5 5 5 6 6 7 7 8 7 6 5 4 4 3 4
158 158 158 157 157 159 163 168 174 179 180 180 179 175 173 172 174 177 185 194 203 218 243 295 329 341 355 357 353 352 350 349 348 351 354 356 357 357 357 358 358 357 356 356 357 357 358 357 356 356 357 357 357 356 356 357 357 359 360 360 360 0 360 0 1 0 0 2 2 1 2 4 5 5 5 5 5 5 6 7 8 7 7 6 5 5 4 4
160 160 158 157 160 164 170 175 179 182 183 183 181 178 177 178 181 188 200 210 219 234 255 286 308 321 335 342 342 343 343 342 343 348 351 353 354 355 356 356 356 355 355 355 355 355 357 357 357 356 356 356 356 356 355 356 357 358 359 359 359 359 359 359 0 0 359 0 2 2 1 3 5 5 5 5 5 5 6 7 8 8 8 7 6 6 5 5
161 161 159 161 165 170 176 182 184 185 185 185 184 183 183 186 191 201 213 222 229 242 259 280 298 305 311 321 330 334 335 336 339 344 347 349 350 353 354 355 355 354 353 353 353 353 354 355 356 356 356 355 355 355 355 355 356 357 358 359 359 359 359 359 359 360 359 359 1 3 2 2 3 4 4 4 4 5 6 7 8 9 8 8 7 7 6 5
163 162 163 165 170 177 182 186 189 190 190 190 190 190 191 195 201 211 221 229 236 248 263 278 292 297 298 308 319 326 329 332 335 340 344 346 348 351 353 354 354 353 353 352 351 351 351 352 354 354 354 355 354 355 356 356 356 356 357 358 359 358 358 358 358 359 359 359 359 1 2 2 3 3 3 3 4 5 6 7 9 9 9 9 8 8 7 6
164 165 168 171 177 183 186 189 193 195 197 197 198 199 201 206 212 220 229 236 242 252 265 278 289 295 296 301 311 318 324 328 332 336 340 343 346 349 351 353 353 352 352 351 350 349 350 350 351 353 353 353 354 354 355 355 356 356 356 357 357 357 357 357 357 358 359 359 359 359 1 1 2 3 3 3 3 4 6 7 9 10 10 10 10 9 8 7
167 169 174 178 183 188 191 193 197 200 203 205 206 208 211 215 221 229 239 246 250 257 267 277 286 292 296 301 307 312 317 323 327 332 337 341 344 347 349 351 352 351 351 350 349 348 348 348 349 351 352 352 353 353 353 354 355 355 355 356 356 357 357 356 356 357 358 359 359 359 359 360 0 1 2 3 3 4 5 6 8 10 11 11 10 10 9 8
172 176 181 185 190 194 196 198 202 207 210 212 215 217 220 224 230 238 247 255 259 263 269 277 285 291 298 303 306 309 313 318 323 328 333 338 341 345 347 349 350 349 349 348 348 348 348 348 348 349 350 351 352 352 353 353 354 354 355 355 355 356 356 356 356 356 357 358 359 359 359 359 359 0 2 2 2 3 4 6 8 10 11 11 11 10 10 9
178 182 187 192 197 200 202 205 209 212 216 219 222 225 229 234 240 245 252 260 265 268 271 277 284 292 298 304 306 308 311 315 320 325 330 335 338 342 345 347 347 347 347 347 347 347 347 347 347 348 348 349 351 352 352 352 353 353 354 354 354 355 356 355 355 355 356 357 358 358 359 359 359 359 0 1 1 2 3 5 7 9 10 11 11 11 10 10
184 189 194 198 202 206 208 212 215 218 221 225 228 232 237 241 246 251 256 262 267 270 273 277 283 291 298 303 306 308 310 314 318 323 327 331 335 339 342 344 345 345 345 345 345 345 346 346 346 346 347 348 349 350 351 351 352 353 353 353 354 354 354 355 355 355 355 356 357 358 359 359 358 358 359 360 1 2 3 4 6 8 10 11 11 11 11 11
190 194 199 204 208 212 215 219 221 223 227 231 234 237 241 246 250 255 259 263 268 271 274 277 283 290 297 302 305 307 309 313 317 322 325 329 333 337 340 341 342 342 342 343 343 344 345 345 345 346 346 347 348 349 350 351 352 352 352 353 354 353 353 354 354 354 355 355 356 357 358 358 358 357 358 359 1 2 3 3 5 8 9 11 11 11 11 11
196 200 205 209 214 218 221 225 227 229 233 236 239 242 245 248 252 256 261 265 268 271 273 276 281 288 296 301 303 305 308 312 316 320 324 327 331 334 337 338 339 339 340 341 342 343 343 343 344 345 346 346 347 348 350 351 351 351 352 353 353 353 353 353 354 354 354 355 355 356 357 358 358 357 358 359 0 1 2 3 4 7 9 10 11 12 12 11
Height
10714 10715 10716 10720 10723 10726 10729 10732 10735 10736 10740 10744 10748 10750 10752 10754 10755 10757 10759 10761 10762 10763 10765 10765 10767 10768 10768 10769 10769 10769 10769 10768 10767 10766 10765 10763 10762 10760 10759 10756 10754 10751 10749 10746 10743 10740 10736 10733 10729 10726 10722 10718 10714 10710 10706 10703 10699 10694 10690 10687 10683 10679 10675 10670 10665 10660 10655 10649 10644 10638 10632 10628 10624 10620 10615 10610 10605 10600 10596 10594 10591 10583 10575 10571 10566 10562 10557 10554
10712 10714 10715 10718 10722 10725 10728 10731 10732 10735 10738 10742 10745 10747 10749 10751 10753 10755 10757 10759 10760 10762 10763 10763 10764 10765 10766 10766 10766 10766 10766 10765 10763 10762 10761 10760 10758 10757 10755 10753 10750 10747 10744 10742 10738 10735 10731 10728 10724 10720 10716 10712 10708 10704 10700 10696 10693 10689 10684 10681 10677 10673 10669 10664 10659 10655 10650 10644 10639 10633 10627 10623 10619 10615 10610 10605 10599 10594 10590 10586 10580 10572 10567 10563 10556 10551 10547 10543
10711 10712 10714 10717 10721 10724 10727 10728 10730 10733 10735 10739 10742 10745 10747 10749 10752 10754 10756 10757 10758 10760 10760 10761 10762 10762 10763 10764 10764 10763 10762 10761 10760 10759 10758 10757 10755 10753 10751 10749 10746 10743 10740 10737 10734 10730 10727 10723 10719 10715 10711 10707 10703 10699 10695 10691 10688 10685 10680 10676 10672 10667 10663 10659 10655 10650 10645 10640 10633 10627 10622 10617 10614 10610 10604 10600 10594 10588 10582 10576 10570 10565 10560 10554 10548 10542 10536 10532
10709 10711 10713 10716 10719 10722 10724 10726 10728 10730 10733 10737 10740 10743 10745 10748 10750 10752 10754 10755 10756 10757 10758 10759 10760 10760 10761 10761 10761 10760 10759 10758 10757 10756 10755 10754 10752 10749 10747 10744 10741 10739 10736 10733 10729 10725 10722 10718 10714 10710 10706 10702 10698 10695 10691 10687 10683 10679 10676 10672 10667 10663 10659 10655 10651 10646 10640 10634 10628 10621 10615 10611 10608 10603 10597 10592 10588 10582 10573 10565 10560 10556 10550 10544 10538 10532 10526 10521
10707 10710 10712 10715 10717 10719 10722 10724 10726 10728 10731 10735 10738 10741 10744 10747 10749 10750 10752 10753 10754 10755 10756 10757 10758 10759 10759 10759 10758 10757 10756 10755 10754 10753 10752 10750 10748 10745 10742 10740 10737 10734 10731 10728 10724 10720 10717 10713 10709 10705 10701 10697 10694 10690 10686 10682 10679 10675 10672 10668 10664 10660 10656 10652 10647 10642 10636 10629 10622 10614 10608 10605 10603 10596 10588 10583 10580 10574 10565 10557 10550 10544 10539 10533 10527 10521 10514 10509
10706 10708 10711 10713 10716 10719 10721 10723 10724 10727 10730 10734 10737 10740 10742 10745 10747 10749 10750 10750 10752 10753 10754 10755 10756 10757 10756 10756 10755 10754 10753 10752 10751 10750 10748 10746 10744 10741 10738 10736 10733 10730 10727 10723 10719 10715 10711 10708 10704 10700 10697 10693 10689 10686 10682 10678 10675 10671 10668 10664 10660 10656 10652 10648 10643 10637 10631 10624 10616 10606 10600 10598 10598 10590 10580 10574 10569 10563 10557 10549 10541 10533 10527 10521 10514 10508 10501 10495
10704 10706 10709 10712 10715 10717 10719 10721 10723 10726 10729 10732 10735 10738 10740 10743 10745 10746 10747 10748 10750 10751 10753 10754 10754 10754 10754 10753 10752 10751 10751 10749 10748 10747 10745 10742 10740 10737 10735 10732 10729 10726 10722 10718 10714 10711 10707 10703 10700 10697 10693 10690 10686 10682 10679 10675 10671 10667 10664 10660 10656 10652 10648 10643 10638 10632 10625 10618 10610 10599 10591 10591 10591 10584 10573 10565 10558 10552 10546 10539 10531 10523 10515 10508 10501 10494 10487 10481
10702 10704 10707 10710 10712 10715 10718 10721 10723 10725 10728 10731 10733 10736 10738 10740 10742 10743 10745 10746 10748 10750 10751 10751 10751 10751 10751 10750 10750 10749 10748 10746 10745 10743 10741 10739 10736 10734 10731 10728 10725 10721 10718 10714 10710 10707 10703 10700 10696 10693 10690 10686 10683 10679 10675 10671 10667 10662 10659 10656 10652 10647 10644 10639 10633 10626 10619 10613 10605 10592 10583 10582 10582 10576 10566 10556 10548 10541 10533 10526 10519 10510 10502 10495 10488 10480 10473 10466
10700 10703 10705 10707 10710 10714 10717 10719 10722 10724 10726 10729 10732 10734 10736 10737 10739 10741 10743 10745 10746 10748 10748 10748 10748 10748 10748 10747 10747 10746 10744 10743 10741 10740 10737 10735 10733 10730 10727 10724 10720 10717 10713 10710 10706 10703 10700 10697 10694 10690 10687 10684 10680 10676 10672 10667 10663 10658 10654 10652 10648 10643 10639 10634 10628 10621 10614 10607 10600 10587 10576 10574 10572 10567 10558 10548 10539 10531 10522 10514 10506 10497 10489 10481 10473 10465 10458 10451
10699 10702 10704 10705 10709 10712 10715 10717 10720 10723 10725 10727 10730 10732 10734 10736 10738 10740 10742 10743 10744 10745 10745 10745 10746 10746 10745 10745 10744 10743 10741 10740 10738 10736 10734 10731 10729 10726 10723 10720 10716 10713 10710 10707 10704 10700 10697 10695 10692 10689 10685 10681 10677 10673 10669 10664 10659 10654 10649 10646 10644 10640 10634 10629 10622 10614 10608 10601 10594 10583 10571 10566 10562 10557 10550 10541 10532 10523 10513 10504 10495 10486 10476 10467 10458 10450 10442 10435
10697 10700 10702 10704 10707 10711 10713 10716 10719 10721 10724 10726 10728 10731 10733 10734 10736 10738 10740 10741 10742 10742 10742 10743 10743 10743 10743 10741 10741 10739 10738 10736 10735 10732 10730 10728 10725 10722 10719 10716 10713 10710 10707 10704 10701 10699 10696 10693 10690 10687 10683 10679 10674 10670 10666 10661 10656 10650 10644 10639 10637 10635 10630 10624 10616 10607 10601 10595 10589 10580 10568 10560 10554 10547 10540 10532 10523 10514 10505 10495 10485 10475 10466 10456 10446 10437 10428 10419
10695 10698 10700 10703 10706 10709 10711 10714 10717 10720 10722 10725 10727 10729 10731 10733 10735 10737 10738 10739 10739 10740 10740 10741 10741 10740 10739 10738 10737 10736 10735 10733 10731 10729 10727 10724 10721 10718 10716 10713 10710 10707 10705 10702 10700 10697 10694 10691 10688 10684 10681 10677 10672 10668 10663 10658 10652 10647 10641 10634 10629 10626 10624 10618 10609 10601 10594 10587 10581 10575 10566 10557 10548 10540 10532 10524 10515 10506 10496 10486 10476 10466 10455 10445 10434 10423 10414 10404
10694 10697 10699 10702 10705 10707 10710 10713 10716 10719 10721 10724 10726 10728 10730 10731 10733 10734 10735 10736 10737 10738 10738 10738 10738 10737 10736 10735 10734 10733 10731 10729 10728 10726 10723 10721 10718 10715 10713 10710 10708 10705 10703 10701 10698 10696 10693 10690 10686 10682 10678 10674 10670 10665 10661 10655 10649 10644 10639 10634 10626 10619 10617 10612 10604 10595 10587 10580 10573 10568 10561 10553 10544 10535 10527 10518 10508 10498 10488 10478 10467 10457 10446 10435 10424 10413 10402 10392
10693 10695 10698 10701 10703 10706 10709 10712 10715 10718 10720 10722 10724 10726 10728 10730 10731 10732 10733 10734 10735 10735 10736 10735 10735 10734 10733 10732 10731 10730 10728 10726 10724 10722 10720 10718 10715 10713 10710 10708 10706 10704 10702 10700 10697 10694 10691 10687 10684 10680 10676 10671 10666 10662 10657 10653 10647 10641 10635 10630 10625 10618 10612 10607 10600 10591 10583 10574 10567 10562 10555 10547 10539 10530 10521 10510 10500 10490 10480 10469 10459 10448 10437 10425 10414 10402 10391 10380
10691 10694 10697 10700 10702 10705 10707 10710 10713 10716 10718 10721 10723 10725 10727 10728 10729 10730 10731 10732 10733 10733 10733 10732 10731 10731 10730 10729 10728 10726 10725 10723 10721 10719 10717 10715 10713 10711 10709 10707 10705 10703 10701 10698 10695 10692 10689 10685 10682 10678 10673 10668 10663 10659 10654 10649 10644 10639 10632 10626 10622 10617 10609 10603 10596 10587 10579 10570 10562 10557 10552 10542 10532 10523 10513 10504 10493 10483 10472 10461 10449 10437 10425 10413 10401 10389 10378 10367
10690 10693 10696 10699 10701 10704 10706 10709 10711 10714 10716 10719 10721 10723 10725 10726 10727 10728 10729 10730 10730 10730 10730 10729 10729 10728 10728 10726 10725 10723 10721 10720 10718 10717 10715 10713 10711 10709 10708 10706 10704 10702 10699 10696 10693 10690 10686 10683 10679 10675 10671 10666 10661 10656 10651 10645 10639 10635 10630 10623 10618 10615 10610 10602 10593 10583 10574 10566 10556 10549 10544 10535 10525 10517 10507 10498 10488 10476 10464 10451 10437 10424 10411 10399 10386 10375 10363 10352
10689 10692 10695 10698 10700 10703 10706 10708 10710 10713 10715 10717 10720 10721 10722 10723 10725 10726 10727 10728 10728 10728 10727 10727 10726 10726 10725 10723 10721 10720 10719 10718 10716 10715 10713 10712 10710 10708 10707 10705 10703 10701 10698 10695 10691 10688 10684 10680 10676 10672 10669 10664 10659 10654 10649 10644 10639 10634 10628 10621 10614 10610 10607 10600 10593 10583 10571 10562 10551 10542 10536 10528 10519 10511 10501 10490 10479 10466 10453 10440 10426 10412 10398 10385 10372 10360 10349 10338
10688 10691 10694 10696 10699 10702 10705 10707 10710 10712 10714 10716 10718 10720 10720 10722 10723 10724 10725 10725 10725 10725 10725 10724 10723 10722 10721 10720 10719 10718 10717 10716 10715 10713 10712 10710 10709 10707 10705 10703 10701 10699 10696 10693 10690 10686 10682 10677 10673 10669 10665 10660 10656 10652 10648 10644 10639 10633 10627 10621 10613 10605 10601 10596 10589 10581 10570 10558 10548 10539 10534 10527 10515 10504 10493 10481 10470 10458 10445 10430 10415 10400 10385 10372 10360 10348 10337 10326
10687 10690 10693 10696 10698 10701 10704 10706 10709 10711 10713 10715 10716 10718 10719 10720 10721 10722 10723 10723 10723 10723 10722 10721 10720 10719 10718 10717 10717 10716 10715 10714 10713 10712 10711 10709 10708 10706 10704 10701 10699 10697 10694 10691 10687 10683 10679 10675 10670 10666 10661 10657 10654 10650 10645 10640 10634 10628 10623 10618 10611 10601 10595 10590 10584 10577 10568 10557 10546 10537 10531 10524 10512 10500 10488 10476 10464 10451 10438 10422 10406 10390 10375 10361 10347 10335 10324 10313
10686 10689 10692 10695 10698 10700 10703 10705 10708 10710 10711 10713 10715 10716 10718 10719 10720 10720 10721 10721 10721 10720 10719 10718 10718 10717 10716 10716 10715 10714 10713 10712 10712 10711 10709 10708 10707 10705 10702 10700 10697 10694 10692 10688 10684 10681 10677 10673 10668 10664 10659 10655 10651 10647 10642 10637 10631 10625 10620 10613 10607 10598 10589 10584 10580 10573 10566 10557 10546 10533 10524 10516 10505 10494 10482 10471 10459 10445 10431 10415 10399 10383 10367 10352 10337 10323 10311 10300
10685 10688 10691 10694 10697 10699 10702 10704 10707 10709 10710 10712 10714 10715 10716 10717 10718 10718 10719 10718 10718 10717 10716 10716 10716 10715 10715 10714 10713 10713 10712 10711 10711 10709 10708 10707 10705 10703 10700 10698 10695 10692 10689 10686 10683 10679 10675 10671 10667 10662 10658 10653 10648 10644 10639 10634 10628 10623 10617 10611 10604 10597 10587 10578 10573 10569 10563 10555 10544 10530 10519 10510 10499 10488 10477 10465 10453 10440 10425 10410 10394 10377 10360 10344 10328 10313 10300 10288
10683 10686 10690 10693 10696 10698 10701 10703 10706 10707 10709 10711 10713 10714 10715 10716 10716 10716 10716 10716 10715 10715 10714 10714 10714 10714 10713 10713 10712 10712 10711 10711 10710 10708 10707 10705 10703 10700 10698 10695 10692 10689 10687 10684 10681 10677 10673 10670 10666 10661 10656 10651 10646 10641 10636 10631 10626 10620 10613 10606 10600 10595 10589 10580 10571 10564 10557 10550 10541 10527 10515 10505 10495 10484 10474 10462 10448 10434 10420 10405 10388 10371 10354 10337 10321 10306 10292 10280
10683 10686 10689 10692 10695 10698 10700 10702 10704 10706 10708 10709 10711 10712 10713 10714 10714 10714 10714 10713 10713 10713 10713 10713 10713 10712 10712 10712 10711 10711 10711 10710 10709 10707 10705 10703 10701 10698 10696 10693 10690 10687 10684 10682 10678 10675 10672 10669 10665 10660 10655 10650 10644 10638 10632 10626 10621 10615 10608 10602 10595 10589 10585 10580 10571 10560 10551 10543 10537 10526 10512 10501 10493 10481 10469 10456 10444 10431 10417 10401 10385 10367 10350 10333 10317 10301 10287 10274
10682 10685 10688 10691 10694 10697 10699 10701 10703 10705 10706 10708 10709 10711 10711 10712 10712 10712 10712 10712 10712 10712 10712 10712 10712 10712 10711 10711 10711 10711 10710 10709 10708 10706 10704 10702 10699 10696 10694 10691 10689 10686 10683 10680 10677 10675 10671 10668 10663 10658 10653 10648 10642 10637 10631 10623 10616 10610 10604 10598 10592 10584 10576 10570 10565 10558 10549 10539 10531 10524 10512 10499 10487 10476 10464 10453 10441 10428 10413 10398 10381 10364 10346 10328 10312 10296 10282 10269
10682 10684 10687 10690 10693 10695 10697 10699 10701 10703 10705 10706 10708 10709 10710 10710 10710 10710 10710 10710 10710 10710 10711 10711 10711 10711 10711 10711 10711 10710 10709 10708 10706 10704 10702 10700 10698 10695 10692 10689 10687 10685 10682 10679 10676 10673 10670 10666 10661 10657 10652 10646 10641 10635 10628 10621 10615 10608 10602 10595 10588 10580 10571 10563 10557 10551 10544 10534 10523 10515 10506 10494 10482 10471 10461 10450 10435 10421 10407 10391 10372 10354 10337 10321 10306 10292 10278 10266
10681 10684 10686 10689 10692 10694 10696 10698 10700 10702 10703 10705 10706 10707 10708 10708 10708 10708 10709 10709 10709 10710 10710 10710 10711 10711 10711 10711 10710 10709 10707 10706 10704 10702 10700 10698 10697 10694 10691 10688 10686 10683 10681 10678 10675 10671 10667 10664 10659 10655 10649 10643 10637 10631 10626 10621 10615 10608 10600 10592 10582 10574 10567 10558 10550 10543 10535 10526 10517 10508 10499 10490 10482 10472 10458 10442 10427 10411 10394 10377 10359 10343 10328 10314 10299 10284 10271 10258
10681 10683 10686 10688 10690 10692 10695 10697 10699 10700 10702 10704 10705 10706 10706 10706 10707 10707 10707 10708 10708 10709 10709 10710 10710 10710 10710 10710 10709 10707 10706 10704 10702 10701 10699 10697 10695 10693 10690 10687 10685 10682 10679 10676 10672 10669 10665 10661 10656 10651 10646 10640 10635 10630 10625 10620 10613 10605 10596 10588 10580 10572 10562 10552 10542 10536 10530 10523 10515 10506 10497 10486 10474 10461 10446 10430 10414 10397 10379 10363 10349 10335 10319 10303 10287 10270 10254 10239
10681 10683 10685 10687 10690 10692 10694 10696 10698 10699 10701 10702 10703 10704 10705 10705 10705 10706 10706 10707 10708 10708 10709 10709 10709 10710 10709 10709 10707 10706 10704 10703 10701 10699 10697 10695 10693 10691 10689 10687 10684 10680 10677 10673 10670 10666 10662 10657 10652 10647 10643 10638 10634 10629 10624 10617 10610 10602 10594 10585 10577 10567 10557 10548 10541 10536 10530 10522 10513 10504 10495 10483 10465 10445 10430 10416 10400 10384 10369 10356 10342 10326 10309 10291 10271 10253 10236 10222
10681 10683 10685 10687 10689 10691 10693 10695 10697 10699 10700 10701 10702 10703 10704 10704 10704 10705 10706 10706 10707 10708 10708 10708 10709 10709 10708 10707 10705 10704 10702 10701 10699 10697 10695 10693 10691 10689 10687 10685 10683 10679 10675 10671 10668 10663 10659 10654 10650 10645 10641 10636 10632 10626 10620 10614 10607 10599 10592 10584 10575 10565 10557 10550 10542 10534 10527 10520 10511 10499 10485 10472 10456 10438 10421 10405 10389 10375 10363 10350 10335 10317 10299 10279 10260 10242 10226 10212
10681 10684 10686 10688 10690 10692 10693 10695 10697 10698 10700 10701 10702 10702 10702 10703 10704 10704 10705 10706 10707 10707 10707 10708 10708 10707 10706 10705 10704 10702 10701 10699 10697 10695 10694 10692 10690 10687 10685 10682 10679 10676 10672 10668 10663 10659 10656 10652 10648 10644 10639 10634 10629 10623 10617 10610 10604 10597 10591 10585 10577 10569 10562 10553 10541 10530 10523 10514 10501 10486 10469 10454 10443 10431 10415 10398 10383 10371 10358 10343 10327 10310 10291 10272 10253 10236 10220 10207
10682 10684 10686 10688 10690 10691 10693 10695 10696 10698 10699 10700 10701 10701 10702 10702 10703 10704 10705 10706 10706 10706 10707 10707 10706 10706 10705 10704 10702 10701 10699 10698 10696 10695 10693 10690 10687 10684 10680 10675 10670 10667 10665 10663 10661 10658 10655 10651 10647 10642 10637 10632 10626 10620 10613 10606 10600 10594 10588 10582 10577 10572 10565 10555 10542 10527 10514 10501 10486 10473 10461 10448 10435 10422 10408 10394 10381 10366 10351 10334 10318 10303 10284 10265 10249 10235 10222 10209
10683 10685 10686 10688 10690 10691 10693 10695 10696 10698 10699 10699 10700 10701 10702 10702 10703 10704 10705 10705 10706 10706 10706 10706 10705 10704 10703 10702 10701 10699 10698 10696 10695 10693 10690 10687 10684 10681 10677 10674 10671 10669 10667 10665 10662 10657 10653 10648 10644 10640 10636 10631 10625 10618 10611 10604 10598 10591 10585 10579 10575 10569 10560 10549 10537 10522 10506 10493 10480 10468 10458 10447 10433 10419 10405 10391 10377 10360 10343 10327 10310 10293 10275 10258 10244 10233 10222 10208
10683 10685 10687 10688 10690 10692 10693 10695 10696 10697 10698 10699 10700 10701 10701 10702 10703 10704 10704 10705 10705 10705 10705 10704 10704 10703 10702 10701 10699 10698 10696 10695 10693 10691 10688 10686 10683 10681 10678 10676 10673 10670 10667 10664 10660 10655 10651 10647 10643 10638 10633 10627 10621 10615 10608 10601 10593 10585 10577 10569 10559 10550 10541 10533 10524 10512 10499 10489 10479 10467 10456 10444 10430 10417 10403 10388 10372 10355 10338 10322 10304 10284 10267 10256 10245 10232 10218 10202
10684 10685 10687 10689 10690 10692 10693 10695 10696 10697 10698 10699 10699 10700 10701 10702 10703 10704 10704 10704 10704 10704 10704 10704 10703 10702 10701 10699 10698 10697 10695 10693 10691 10689 10687 10684 10682 10680 10677 10674 10670 10667 10663 10659 10657 10654 10649 10645 10640 10635 10629 10622 10615 10608 10601 10594 10586 10577 10567 10556 10545 10537 10529 10518 10508 10499 10489 10481 10475 10465 10452 10440 10427 10413 10400 10386 10368 10351 10335 10318 10300 10283 10271 10261 10249 10233 10217 10201
10684 10686 10687 10689 10690 10692 10693 10694 10696 10697 10697 10698 10699 10700 10701 10702 10703 10703 10704 10704 10704 10703 10703 10703 10702 10701 10700 10698 10697 10695 10694 10692 10690 10688 10686 10683 10681 10678 10674 10672 10669 10665 10661 10657 10653 10649 10645 10640 10635 10629 10622 10616 10609 10602 10594 10587 10580 10571 10562 10553 10544 10536 10528 10518 10506 10496 10485 10474 10467 10459 10446 10433 10424 10413 10399 10383 10364 10348 10332 10314 10298 10287 10275 10261 10244 10229 10215 10201
10685 10686 10688 10689 10690 10692 10693 10694 10695 10696 10697 10698 10699 10700 10701 10702 10703 10703 10703 10703 10703 10703 10702 10702 10701 10700 10698 10697 10696 10694 10692 10691 10689 10687 10684 10682 10679 10676 10673 10670 10667 10663 10659 10655 10650 10646 10641 10636 10630 10623 10617 10611 10605 10597 10589 10582 10574 10565 10558 10552 10544 10532 10524 10520 10512 10502 10491 10476 10462 10453 10443 10431 10421 10409 10393 10378 10363 10346 10327 10311 10300 10288 10273 10255 10239 10224 10210 10195
10685 10686 10688 10689 10690 10692 10693 10694 10695 10696 10697 10698 10699 10700 10701 10702 10702 10702 10702 10702 10702 10702 10701 10701 10700 10698 10697 10696 10694 10693 10691 10689 10687 10685 10683 10680 10678 10675 10671 10668 10665 10661 10657 10652 10647 10642 10636 10631 10625 10619 10613 10607 10601 10594 10586 10577 10569 10561 10555 10548 10540 10530 10519 10511 10507 10501 10494 10481 10462 10447 10437 10428 10415 10401 10388 10375 10361 10343 10324 10310 10299 10285 10269 10254 10240 10224 10207 10191
10685 10687 10688 10689 10690 10692 10693 10694 10695 10696 10697 10698 10699 10700 10701 10701 10702 10702 10702 10702 10701 10701 10700 10699 10698 10697 10696 10695 10693 10692 10690 10688 10686 10684 10681 10679 10676 10673 10670 10666 10662 10658 10654 10649 10645 10639 10633 10628 10622 10617 10611 10604 10597 10590 10583 10575 10567 10559 10551 10542 10533 10525 10513 10500 10492 10486 10479 10472 10463 10450 10437 10424 10409 10395 10385 10372 10355 10338 10325 10311 10295 10278 10263 10251 10239 10224 10208 10193
10686 10687 10688 10689 10691 10692 10693 10694 10695 10696 10697 10698 10699 10700 10700 10701 10701 10701 10701 10701 10700 10700 10699 10698 10697 10696 10695 10693 10692 10690 10688 10686 10684 10682 10680 10677 10674 10671 10667 10664 10660 10655 10651 10647 10642 10636 10631 10625 10619 10613 10607 10600 10593 10586 10579 10572 10566 10559 10550 10541 10531 10521 10510 10497 10485 10477 10469 10462 10457 10448 10433 10418 10406 10394 10380 10364 10348 10334 10322 10307 10290 10275 10262 10249 10237 10223 10208 10191
10686 10687 10688 10690 10691 10692 10693 10694 10695 10696 10697 10698 10699 10699 10700 10700 10700 10700 10700 10700 10699 10699 10698 10697 10696 10695 10693 10692 10690 10688 10687 10684 10682 10680 10677 10675 10671 10668 10665 10661 10657 10653 10648 10644 10639 10634 10629 10623 10616 10610 10603 10597 10590 10583 10577 10570 10564 10557 10549 10540 10530 10519 10510 10501 10488 10476 10467 10456 10445 10439 10431 10418 10406 10393 10377 10361 10346 10333 10318 10302 10288 10277 10265 10251 10235 10221 10206 10189
10686 10687 10689 10690 10691 10692 10693 10694 10695 10696 10697 10698 10698 10699 10699 10699 10699 10699 10699 10699 10698 10698 10697 10696 10694 10693 10692 10690 10689 10687 10685 10683 10680 10678 10675 10672 10669 10666 10662 10659 10655 10651 10646 10642 10637 10633 10627 10621 10615 10608 10602 10596 10588 10581 10575 10568 10561 10553 10544 10535 10525 10516 10508 10500 10489 10476 10465 10455 10442 10431 10425 10417 10404 10389 10374 10360 10346 10333 10319 10305 10293 10281 10267 10251 10234 10218 10202 10184
10686 10688 10689 10690 10691 10692 10693 10694 10695 10696 10697 10697 10698 10698 10698 10699 10698 10698 10698 10698 10697 10696 10695 10694 10693 10692 10690 10689 10687 10685 10683 10681 10678 10676 10673 10670 10667 10663 10660 10656 10652 10648 10644 10640 10635 10631 10626 10620 10613 10606 10599 10592 10585 10578 10572 10566 10558 10549 10540 10531 10521 10512 10503 10494 10486 10475 10466 10460 10450 10434 10422 10413 10399 10384 10370 10358 10347 10337 10325 10312 10298 10282 10264 10247 10231 10215 10199 10182
10687 10688 10689 10690 10691 10692 10693 10694 10695 10696 10696 10697 10697 10698 10698 10698 10698 10697 10697 10697 10696 10695 10694 10693 10692 10690 10689 10687 10686 10684 10681 10679 10677 10674 10671 10667 10664 10661 10657 10653 10649 10645 10641 10637 10632 10628 10624 10620 10613 10606 10599 10591 10585 10579 10570 10562 10555 10547 10538 10529 10519 10510 10501 10492 10484 10474 10463 10455 10450 10438 10421 10405 10393 10382 10371 10362 10351 10340 10327 10314 10298 10280 10263 10246 10229 10213 10197 10181
10687 10688 10689 10690 10691 10692 10693 10694 10695 10695 10696 10696 10697 10697 10697 10697 10697 10696 10696 10695 10695 10694 10692 10691 10690 10689 10688 10686 10684 10682 10680 10677 10675 10672 10669 10665 10662 10659 10655 10651 10646 10642 10637 10633 10628 10624 10619 10615 10610 10606 10601 10595 10588 10581 10572 10561 10550 10542 10534 10526 10516 10507 10499 10491 10483 10475 10464 10451 10442 10434 10420 10405 10395 10385 10375 10365 10355 10343 10328 10312 10294 10277 10263 10248 10230 10212 10194 10177
10687 10688 10689 10690 10691 10692 10693 10694 10695 10695 10695 10696 10696 10696 10696 10696 10696 10695 10695 10694 10693 10692 10691 10690 10689 10687 10686 10684 10682 10680 10678 10676 10673 10670 10667 10663 10660 10656 10653 10648 10644 10639 10634 10629 10624 10618 10613 10608 10604 10599 10593 10587 10580 10572 10564 10554 10544 10536 10528 10521 10513 10505 10496 10487 10479 10471 10463 10450 10438 10431 10426 10416 10404 10393 10381 10369 10357 10345 10330 10314 10297 10282 10266 10248 10228 10208 10191 10177
10687 10688 10689 10690 10691 10692 10693 10693 10694 10695 10695 10695 10695 10695 10695 10695 10694 10694 10693 10693 10692 10691 10689 10688 10687 10685 10684 10682 10680 10678 10676 10674 10671 10668 10665 10661 10658 10654 10650 10646 10642 10637 10632 10627 10621 10615 10609 10603 10598 10593 10586 10578 10571 10563 10556 10549 10541 10532 10524 10517 10511 10503 10494 10484 10475 10467 10459 10450 10436 10424 10417 10410 10401 10393 10384 10370 10355 10342 10329 10316 10302 10285 10266 10246 10227 10210 10196 10184
10687 10688 10689 10690 10690 10691 10692 10693 10693 10694 10694 10694 10694 10694 10694 10693 10693 10692 10692 10691 10690 10689 10688 10686 10685 10684 10682 10680 10678 10676 10674 10672 10669 10666 10663 10659 10655 10652 10648 10644 10640 10635 10630 10625 10620 10613 10607 10600 10594 10588 10583 10576 10569 10562 10554 10547 10539 10531 10523 10515 10508 10502 10493 10483 10474 10464 10456 10448 10437 10422 10410 10402 10396 10387 10376 10363 10351 10340 10329 10316 10300 10281 10263 10247 10233 10219 10206 10191
10687 10688 10689 10689 10690 10691 10691 10692 10692 10693 10693 10693 10693 10693 10692 10692 10692 10691 10690 10690 10689 10687 10686 10685 10683 10682 10680 10678 10676 10674 10672 10670 10667 10664 10660 10657 10653 10649 10646 10641 10637 10633 10628 10624 10618 10612 10606 10599 10592 10585 10580 10574 10568 10561 10553 10546 10539 10531 10523 10515 10507 10500 10493 10483 10474 10464 10454 10444 10436 10425 10412 10402 10392 10381 10369 10360 10351 10339 10326 10312 10296 10280 10266 10254 10241 10227 10211 10193
10686 10687 10688 10689 10690 10690 10691 10691 10691 10692 10692 10692 10692 10692 10691 10690 10690 10689 10689 10688 10687 10686 10684 10683 10681 10679 10678 10676 10674 10672 10670 10667 10664 10661 10658 10655 10651 10647 10643 10639 10635 10631 10627 10622 10617 10611 10606 10599 10592 10585 10578 10572 10566 10560 10553 10546 10539 10531 10523 10515 10506 10498 10491 10483 10474 10465 10455 10445 10436 10427 10415 10401 10387 10377 10371 10365 10355 10341 10326 10311 10296 10284 10271 10258 10244 10230 10214 10196
10686 10687 10688 10688 10689 10689 10690 10690 10690 10691 10691 10691 10690 10690 10689 10689 10688 10688 10687 10686 10685 10683 10682 10681 10679 10677 10675 10673 10671 10669 10667 10664 10662 10659 10656 10652 10649 10645 10641 10637 10633 10629 10624 10620 10615 10610 10604 10598 10592 10585 10578 10572 10566 10560 10553 10545 10538 10530 10523 10515 10505 10496 10489 10482 10472 10463 10455 10445 10435 10425 10415 10403 10391 10382 10375 10367 10354 10340 10326 10312 10300 10287 10272 10257 10243 10229 10214 10199
10686 10686 10687 10688 10688 10688 10689 10689 10689 10689 10689 10689 10689 10688 10688 10687 10686 10686 10685 10684 10683 10681 10680 10678 10677 10675 10673 10671 10669 10667 10664 10662 10659 10656 10653 10649 10646 10643 10638 10634 10630 10626 10622 10617 10613 10608 10602 10597 10591 10585 10578 10572 10565 10559 10553 10545 10537 10530 10523 10515 10505 10495 10486 10478 10469 10459 10451 10442 10433 10423 10413 10404 10395 10385 10374 10361 10348 10336 10323 10312 10300 10285 10268 10254 10242 10229 10214 10198
10685 10686 10686 10687 10687 10687 10688 10688 10688 10688 10687 10687 10687 10686 10685 10685 10684 10683 10682 10681 10680 10679 10678 10676 10674 10672 10670 10668 10666 10664 10661 10659 10656 10653 10650 10647 10643 10639 10636 10631 10627 10623 10619 10615 10610 10605 10601 10595 10590 10584 10577 10570 10563 10557 10550 10544 10537 10530 10522 10513 10505 10496 10485 10477 10469 10458 10446 10436 10427 10417 10408 10400 10391 10379 10365 10353 10343 10331 10320 10308 10295 10281 10268 10256 10243 10229 10214 10199